[Iaude] MPEC L115: 2024 LB3 [a=1.76,e=0.29,i=29.3,H=20.7]

mpec at cfa.harvard.edu mpec at cfa.harvard.edu
Tue Jun 11 05:37:42 EDT 2024


M.P.E.C. 2024-L115                                Issued 2024 June 11, 09:36 UT

     The Minor Planet Electronic Circulars contain information on unusual
         minor planets, routine data on comets and natural satellites,
         and occasional editorial announcements.  They are published
    on behalf of Division F of the International Astronomical Union by the
          Minor Planet Center, Smithsonian Astrophysical Observatory,
                          Cambridge, MA 02138, U.S.A.
			  
             Prepared using the Tamkin Foundation Computer Network

                              MPC at CFA.HARVARD.EDU
            URL https://www.minorplanetcenter.net/    ISSN 1523-6714

                                    2024 LB3                                    


Observations:
     K24L03B* C2024 06 09.41486717 51 40.828+30 16 08.44         20.80GVEL115V00
     K24L03B  C2024 06 09.42048117 51 40.525+30 16 30.14         21.04GVEL115V00
     K24L03B  C2024 06 09.42610017 51 40.255+30 16 51.64         20.75GVEL115V00
     K24L03B  C2024 06 09.43171817 51 39.978+30 17 13.38         21.35GVEL115V00
     K24L03B mC2024 06 09.45897117 51 38.660+30 18 57.67               VEL115V00
     K24L03B mC2024 06 09.45995817 51 38.617+30 19 01.45         20.96GVEL115V00
     K24L03B mC2024 06 09.46092817 51 38.549+30 19 04.91               VEL115V00
     K24L03B mC2024 06 09.46287417 51 38.480+30 19 12.54               VEL115V00
     K24L03B mC2024 06 09.46384317 51 38.423+30 19 16.36         21.03GVEL115V00
     K24L03B mC2024 06 09.46481517 51 38.383+30 19 19.99         20.87GVEL115V00
     K24L03B mC2024 06 09.46578717 51 38.347+30 19 23.56         20.86GVEL115V00
     K24L03B mC2024 06 09.46675517 51 38.279+30 19 27.59         20.90GVEL115V00
     K24L03B 1C2024 06 10.01195 17 51 16.13 +30 54 16.1          20.6 VXEL115033
     K24L03B 1C2024 06 10.01386 17 51 16.03 +30 54 23.5          20.6 VXEL115033
     K24L03B 1C2024 06 10.01576 17 51 15.94 +30 54 30.7          20.7 VXEL115033
     K24L03B 1C2024 06 10.01781 17 51 15.84 +30 54 38.4          20.8 VXEL115033
     K24L03B KB2024 06 10.21767 17 51 08.028+31 07 21.61         20.3 GVEL115734
     K24L03B KB2024 06 10.22566 17 51 07.632+31 07 52.03         20.7 GVEL115734
     K24L03B KB2024 06 10.23292 17 51 07.234+31 08 19.61         20.8 GVEL115734
     K24L03B  C2024 06 10.39352517 51 00.505+31 18 32.95         20.93wXEL115F52
     K24L03B  C2024 06 10.40545917 50 59.880+31 19 18.17         20.90wXEL115F52
     K24L03B  C2024 06 10.41756917 50 59.253+31 20 04.18         21.07wXEL115F52
     K24L03B  C2024 06 10.42967617 50 58.608+31 20 49.76         20.81wXEL115F52
     K24L03B KC2024 06 11.01723417 50 32.822+31 57 14.51         20.7 GVEL115J95
     K24L03B KC2024 06 11.02637117 50 32.347+31 57 48.56         20.7 GVEL115J95
     K24L03B KC2024 06 11.22564317 50 23.91 +32 10 08.6          21.2 GVEL115H21
     K24L03B KC2024 06 11.22849417 50 23.76 +32 10 19.4          21.1 GVEL115H21
     K24L03B KC2024 06 11.23140117 50 23.62 +32 10 30.4          21.1 GVEL115H21
     K24L03B KB2024 06 11.30927 17 50 19.699+32 15 17.53         20.5 RZEL115H36
     K24L03B KB2024 06 11.34006 17 50 18.108+32 17 10.14         20.7 RZEL115H36
     K24L03B KB2024 06 11.37049 17 50 16.550+32 19 01.09         20.3 RZEL115H36

Observer details:
033 Karl Schwarzschild Observatory, Tautenburg.  Observers C. Heogner, F.
    Ludwig, M. Hartmann, B. Stecklum.  Measurer B. Stecklum.  1.34-m f/3
    Schmidt + CCD.
734 Farpoint Observatory, Eskridge.  Observers D. Cromer, G. Hug, D. Goodin,
    R. Valentine, P. Lessig.  Measurer G. Hug.  0.69-m f/3.54 reflector + CMO.
F52 Pan-STARRS 2, Haleakala.  Observers J. Herman, T. Lowe, P. Minguez, A.
    Schultz, I. Smith.  Measurers K. Chambers, T. de Boer, J. Fairlamb, H.
    Gao, M. Huber, C.-C. Lin, E. Magnier, Y. Ramanjooloo, R. Wainscoat, R.
    Weryk.  1.8-m Ritchey-Chretien + CCD.
H21 Astronomical Research Observatory, Westfield.  Observer R. Holmes.
    Measurers T. Linder, R. Holmes, L. Horn.  0.81-m f/4.0 astrograph + CCD.
H36 Sandlot Observatory, Scranton.  Observer G. Hug.  0.56-m f/4.8 reflector +
    CMO.
J95 Great Shefford.  Observer P. Birtwhistle.  0.41-m f/6.3 Schmidt-Cassegrain
    + CCD.
V00 Kitt Peak-Bok.  Observer V. F. Carvajal.  Measurers M. J. Brucker, C. E.
    Woodward, T. Beuden, V. F. Carvajal, D. Fay, J. B. Fazekas, D. C. Fuls, A.
    R. Gibbs, H. Groeller, J. K. Hogan, R. A. Kowalski, S. M. Larson, C.
    Lejoly, G. J. Leonard, R. A. Mastaler, R. S. McMillan, D. Rankin, R. L.
    Seaman, F. C. Shelly, K. W. Wierzchos.  2.25-m reflector + 4x4K mosaic
    CCD.

Orbital elements:
2024 LB3                                                 Earth MOID = 0.3867 AU
Epoch 2024 Mar. 31.0 TT = JDT 2460400.5                 MPC                     
M 309.86030              (2000.0)            P               Q                  
n   0.42317652     Peri.   69.35623     +0.42679715     +0.81766787             
a   1.7570671      Node   232.07019     -0.89757874     +0.43517202             
e   0.2935011      Incl.   29.32823     +0.11043822     +0.37688801             
P   2.33           H   20.77          G   0.15           U   9                  
Residuals in seconds of arc
240609 V00  0.2+  0.0     240609 V00  0.0   0.2+    240610 F52  0.0   0.1-
240609 V00  0.1-  0.1+    240610 033  0.0   0.1-    240611 J95  0.0   0.2-
240609 V00  0.0   0.0     240610 033  0.1-  0.0     240611 J95  0.2-  0.0
240609 V00  0.0   0.2+    240610 033  0.0   0.0     240611 H21  0.0   0.3-
240609 V00  0.1+  0.0     240610 033  0.0   0.1-    240611 H21  0.0   0.0
240609 V00  0.2+  0.0     240610 734  0.0   0.2+    240611 H21  0.1+  0.2+
240609 V00  0.1-  0.2-    240610 734  0.1+  0.2+    240611 H36  0.3-  0.4+
240609 V00  0.2+  0.0     240610 734  0.4-  0.1+    240611 H36  0.1-  0.3+
240609 V00  0.1+  0.1+    240610 F52  0.0   0.0     240611 H36  0.1+  0.2+
240609 V00  0.2+  0.0     240610 F52  0.0   0.0
240609 V00  0.3+  0.2-    240610 F52  0.1+  0.1+

Ephemeris:
2024 LB3                 a,e,i = 1.76, 0.29, 29                  q = 1.2414
Date    TT    R. A. (2000) Decl.     Delta      r    Elong.  Phase     V
2024 05 12    17 56 41.4 -05 29 11   0.4562  1.3865   138.8    28.7    21.0
...
2024 05 27    17 58 12.1 +13 48 15   0.4068  1.3392   136.9    31.2    20.8
...
2024 06 04    17 55 04.1 +24 03 24   0.4069  1.3169   130.8    35.7    20.9
...
2024 06 10    17 51 16.8 +30 53 35   0.4170  1.3017   125.3    39.5    21.0
2024 06 11    17 50 33.6 +31 56 15   0.4193  1.2993   124.4    40.1    21.0
2024 06 12    17 49 49.1 +32 57 10   0.4218  1.2969   123.5    40.8    21.1
...
2024 06 18    17 45 04.7 +38 25 15   0.4400  1.2837   118.2    44.2    21.2
...
2024 06 26    17 38 34.0 +44 05 20   0.4694  1.2687   111.9    48.0    21.4
...
2024 07 11    17 29 14.7 +50 31 36   0.5292  1.2490   103.2    52.4    21.8

A. U. Tomatic                (C) Copyright 2024 MPC           M.P.E.C. 2024-L115





More information about the Iaude mailing list